Temperature
21 21 21 21 21 22 23 24 24 25 25 24 24 24 23 22 21 19 18 19 18 18 18 18 18 18 18 18 18 18 18 18 18 17 17 17 17 17 17 17 17 17 17 17 17 18 18 18 18
21 21 21 21 22 22 23 24 24 24 25 24 24 24 23 21 20 19 18 18 18 18 18 17 17 17 17 17 18 17 17 17 17 17 17 17 17 17 17 17 17 17 17 17 17 17 17 18 18
21 21 22 22 23 23 23 24 24 25 24 24 24 23 22 21 20 19 19 18 18 17 18 18 17 17 17 17 17 17 17 17 17 17 17 17 17 17 17 17 17 17 17 17 17 17 17 17 17
21 22 23 23 23 24 24 25 25 24 24 24 23 22 20 20 19 19 19 18 18 17 18 18 18 17 17 17 17 17 17 17 17 17 17 17 17 17 17 16 17 17 17 17 17 17 17 17 17
22 23 23 23 23 24 25 25 25 24 24 23 22 21 20 19 19 19 19 18 18 18 18 18 17 17 17 17 17 17 17 17 17 17 17 17 17 17 16 16 16 16 16 17 17 17 17 17 17
23 23 23 23 23 24 25 25 25 24 23 23 22 21 19 19 19 19 19 19 18 18 18 18 18 18 17 17 17 17 17 17 17 17 17 17 17 17 16 17 16 16 16 16 17 17 17 17 17
23 23 23 23 23 23 24 25 25 24 24 23 22 21 19 19 19 19 19 19 18 18 18 18 18 18 18 17 17 17 17 17 17 17 17 17 17 17 16 16 16 16 16 16 17 17 17 17 17
23 23 23 23 23 23 24 24 24 24 24 23 23 21 20 19 19 19 19 19 19 19 18 18 18 18 18 18 18 18 17 17 17 17 17 17 17 17 16 16 16 16 16 17 17 17 17 17 17
23 22 22 23 23 23 24 24 24 24 23 23 22 21 20 20 20 20 20 19 19 19 19 19 18 18 18 18 18 18 17 17 17 17 17 17 17 17 17 17 17 16 16 17 17 17 17 17 17
23 22 22 23 24 24 24 24 24 24 23 22 21 20 20 20 20 20 20 20 19 19 19 19 19 18 18 18 18 18 17 17 17 17 17 17 17 17 17 17 17 16 16 16 17 17 17 17 17
24 22 23 24 24 24 24 24 24 23 22 22 21 20 20 20 20 20 20 20 20 19 19 19 19 18 18 18 18 18 18 17 17 17 17 17 17 17 17 17 16 16 16 16 17 17 17 17 17
24 24 24 24 24 24 24 24 23 23 22 22 21 21 21 21 21 21 20 20 20 19 19 19 19 19 19 18 18 18 18 17 17 17 17 17 17 17 17 17 17 16 16 16 17 17 17 17 17
24 24 24 24 24 24 23 23 23 23 22 22 22 21 21 21 21 21 20 20 20 19 19 19 19 19 19 18 18 18 18 17 17 17 17 17 17 17 17 17 16 16 16 16 17 17 17 17 17
24 24 24 24 24 24 23 23 23 22 22 22 22 21 21 21 21 21 21 20 20 19 19 19 19 19 19 18 18 18 17 17 17 17 17 17 17 17 16 16 16 16 16 16 16 16 17 16 17
24 24 24 24 24 24 23 23 23 22 22 22 22 22 21 21 21 21 21 20 20 20 19 19 19 19 18 18 18 17 17 17 17 17 17 17 17 17 16 16 16 16 16 16 16 16 16 16 16
24 23 22 24 24 24 23 21 22 22 23 22 22 22 21 21 21 21 21 20 20 20 19 19 19 18 18 18 18 17 17 17 17 17 17 17 17 16 16 16 16 16 16 16 16 16 16 16 16
23 22 22 23 25 24 23 21 22 22 23 22 22 22 21 21 21 21 20 20 20 20 19 19 18 18 18 18 17 17 17 17 17 16 16 16 16 16 16 16 16 15 15 15 15 15 15 16 16
23 23 23 23 24 24 23 22 22 23 23 23 22 22 21 21 21 20 20 20 20 19 19 19 18 18 17 17 17 17 17 17 16 16 16 16 16 16 15 15 15 15 15 15 15 15 15 15 16
24 23 23 23 24 24 23 22 23 24 23 23 23 22 22 21 21 20 20 20 20 19 19 18 18 18 17 17 17 17 17 16 16 16 16 16 16 15 15 15 15 15 15 15 15 15 15 15 15
24 23 23 23 24 24 23 23 23 24 24 24 23 23 22 22 21 20 20 20 19 19 19 18 18 18 17 17 17 16 16 16 16 16 16 15 15 15 15 15 15 15 15 15 15 15 15 15 15
24 24 23 23 24 24 23 23 23 24 24 24 23 23 22 22 21 20 20 20 19 19 19 18 18 18 17 17 17 16 16 16 16 16 15 15 15 15 15 15 15 15 15 15 14 14 14 15 15
23 25 24 24 23 22 23 21 23 23 23 24 23 23 22 22 21 20 20 19 19 19 18 18 18 17 17 17 17 16 16 16 16 16 15 15 15 15 15 15 14 15 14 14 14 14 14 14 15
24 25 24 24 23 22 23 22 23 23 23 23 23 23 22 22 21 20 20 19 19 19 18 18 18 17 17 17 17 16 16 16 16 16 16 15 15 15 15 15 15 14 14 14 14 14 14 14 14
24 24 24 24 23 22 23 23 22 23 23 23 23 23 22 22 21 20 20 19 19 18 18 18 18 17 17 17 17 17 16 16 16 16 16 15 15 15 15 15 15 15 14 14 14 14 14 14 14
24 23 21 21 21 22 25 24 23 25 25 25 24 23 23 22 21 20 20 19 19 18 18 18 18 17 17 17 17 17 17 16 16 16 16 16 15 15 15 15 15 15 14 14 14 14 14 14 14
24 23 21 20 21 22 24 24 24 26 26 25 24 23 23 22 21 21 20 19 19 19 18 18 18 17 17 17 17 17 17 16 16 16 16 15 15 15 15 15 14 14 14 14 14 14 14 14 14
23 23 24 22 23 23 23 24 24 25 25 25 24 23 23 22 21 20 20 19 19 18 18 18 18 17 17 17 17 17 17 16 16 16 16 15 15 15 15 15 14 14 14 14 14 14 14 14 14
24 24 23 23 22 22 23 23 23 23 24 24 24 23 22 22 21 21 20 19 19 19 18 18 18 17 17 17 17 17 17 16 16 16 16 15 15 15 15 15 14 14 14 14 14 14 14 14 14
24 24 24 24 23 22 22 23 25 24 24 24 24 23 22 22 21 21 20 20 19 19 18 18 18 18 17 17 17 17 17 16 16 16 16 15 15 15 15 15 14 14 14 14 14 14 14 14 14
25 25 25 23 23 24 23 23 26 25 25 25 24 23 23 22 21 21 20 20 19 19 18 18 18 18 17 17 17 17 17 16 16 16 15 15 15 15 15 15 14 14 14 14 14 14 14 13 13
Wind_Speed
11 12 7 2 3 2 3 5 7 8 8 9 10 10 13 13 9 9 4 10 14 13 14 14 15 15 15 16 16 16 16 16 16 16 15 14 14 13 13 12 12 12 12 12 11 11 11 10 10
11 8 4 3 2 1 5 8 10 10 8 7 10 13 14 13 11 8 6 10 13 14 14 14 15 15 15 16 16 15 15 15 15 14 14 14 14 13 13 12 12 11 11 11 11 10 10 9 9
11 8 4 3 1 2 5 8 9 10 8 8 10 12 10 8 9 6 7 11 14 15 15 15 15 15 15 16 15 15 14 14 14 13 12 12 12 12 12 12 11 11 11 11 10 10 9 9 8
5 4 3 1 4 6 8 8 9 8 8 8 10 10 10 10 8 9 10 13 15 14 16 15 15 15 15 15 15 14 13 13 12 12 11 11 11 11 11 11 10 10 10 10 10 9 9 8 8
4 3 2 1 5 7 8 8 8 9 10 12 13 12 11 11 12 11 10 13 15 14 16 15 15 14 14 14 14 13 13 12 11 11 10 10 10 10 10 9 9 9 9 8 8 8 8 7 7
3 3 2 2 7 7 7 6 9 12 11 12 12 12 9 9 9 10 9 11 14 14 15 15 14 14 14 13 13 12 11 11 10 9 8 8 7 7 8 8 8 8 8 7 7 6 6 5 5
4 3 1 4 6 6 6 7 9 10 10 9 10 10 7 7 7 9 10 11 11 12 13 14 14 14 14 13 12 11 10 9 8 7 5 4 4 5 6 7 7 7 7 6 6 5 4 3 4
3 3 1 3 6 6 5 7 8 9 8 9 9 9 9 8 8 9 9 11 10 9 9 11 14 15 14 12 11 10 9 7 6 5 4 3 4 5 5 6 5 4 4 4 4 4 4 4 5
3 1 2 3 5 5 5 8 8 8 9 10 12 13 13 12 10 9 8 9 8 8 8 8 9 10 12 12 11 10 9 8 7 6 5 4 4 6 6 6 4 1 1 2 4 5 6 7 8
1 1 3 3 5 5 6 7 7 8 10 12 15 15 14 11 9 9 8 8 8 7 7 8 7 6 8 7 8 7 6 5 4 4 4 1 3 3 4 5 4 4 4 5 8 9 9 9 7
1 2 4 5 6 6 7 6 6 8 7 11 14 15 12 11 8 8 8 7 8 7 6 6 6 5 6 5 5 3 3 3 4 5 5 5 4 2 3 3 3 4 4 3 5 7 6 3 1
3 5 5 5 6 5 5 6 7 7 7 10 13 13 12 10 9 8 8 8 9 7 5 4 5 5 6 6 4 4 4 3 4 5 7 6 3 3 3 3 4 3 3 3 4 3 3 5 5
4 6 6 5 5 5 6 7 8 7 10 11 13 13 11 9 8 8 9 10 10 8 6 5 4 5 6 5 2 5 4 4 6 6 6 6 3 3 3 3 4 5 6 5 4 4 4 5 6
5 6 6 5 6 6 7 6 6 8 9 11 12 11 10 8 8 8 8 9 9 8 7 5 4 5 6 5 3 3 4 5 6 5 5 7 5 3 3 3 3 4 5 5 4 4 4 3 3
5 5 5 5 5 6 6 5 6 7 9 10 12 10 9 8 7 7 8 8 8 8 7 5 5 6 6 6 4 4 4 5 4 4 7 8 7 7 5 3 3 4 8 8 6 6 4 3 3
6 4 4 5 6 6 4 5 6 7 9 8 10 10 8 8 7 7 7 7 7 8 8 6 6 7 6 5 4 3 5 5 4 6 8 9 9 9 6 4 3 6 7 5 3 4 5 4 4
5 5 5 6 6 5 5 6 6 7 9 8 9 10 9 7 7 6 6 7 8 7 8 7 7 7 6 4 3 4 5 4 5 7 8 10 10 10 7 3 4 8 5 4 5 5 4 4 4
3 4 4 5 7 6 6 7 9 10 9 9 10 10 10 9 8 7 7 6 6 7 7 7 7 6 5 3 4 3 4 3 5 6 7 9 9 10 7 4 6 6 4 5 5 5 5 4 4
2 4 4 4 6 7 8 8 8 9 10 9 9 10 11 10 9 9 8 7 6 7 8 7 7 6 4 3 3 2 2 2 3 4 7 9 10 10 7 4 4 4 4 5 5 5 6 4 4
5 5 5 5 6 6 7 9 8 9 9 9 10 9 10 10 11 9 8 6 6 7 7 7 7 7 6 3 3 2 2 2 3 3 5 7 8 9 7 5 3 3 3 5 5 4 4 5 5
5 4 5 5 5 5 6 6 9 9 9 8 8 9 10 10 11 10 8 8 7 6 6 6 6 7 6 4 3 3 2 2 3 2 3 4 6 7 7 6 4 3 3 4 4 5 5 4 5
3 3 3 6 5 4 7 4 8 11 10 10 9 9 9 10 11 10 9 9 8 7 5 6 6 7 6 5 3 2 3 2 2 2 2 3 5 5 5 5 5 4 3 4 4 5 3 4 4
1 2 4 6 5 5 7 5 7 12 12 12 11 11 10 10 11 11 9 9 9 8 5 5 6 6 5 4 4 2 2 2 2 2 2 3 3 4 4 4 4 3 3 4 4 4 5 4 4
4 5 6 6 5 6 8 7 5 10 14 14 13 12 11 11 11 11 10 9 8 8 6 5 5 6 4 3 4 4 4 3 3 2 2 2 2 2 3 4 3 3 2 3 3 4 4 4 4
5 4 2 3 4 5 7 5 3 8 11 13 14 13 12 11 11 11 11 9 9 8 6 6 6 5 3 2 3 4 4 3 2 2 2 2 3 2 3 3 3 3 3 3 3 4 3 4 4
7 6 3 2 3 3 4 3 4 7 8 10 12 12 12 12 11 11 11 10 9 9 7 6 7 5 4 2 2 3 4 3 3 2 3 3 3 3 2 3 3 4 4 4 3 3 3 3 3
5 6 6 5 6 4 3 4 6 7 9 10 12 13 12 12 12 12 11 10 10 9 8 7 7 6 5 4 3 3 3 3 3 3 4 3 3 3 3 3 3 3 3 4 3 3 3 3 3
7 6 4 4 3 3 3 5 6 10 10 10 12 13 12 11 11 11 11 11 10 9 8 7 8 7 5 5 4 4 3 3 3 4 4 4 4 3 2 3 3 3 3 3 3 3 3 3 3
8 8 6 4 4 2 1 1 4 10 10 10 11 13 12 12 11 11 10 10 9 9 9 8 7 7 6 5 5 4 3 3 3 3 2 3 2 2 2 2 3 3 3 3 3 3 4 4 4
8 9 8 5 5 3 1 1 4 8 10 10 11 12 12 12 11 11 10 10 9 9 8 8 7 6 5 5 4 5 4 3 2 2 2 2 2 2 2 3 3 4 4 4 4 4 4 4 4
Wind_Direction
277 258 255 266 266 239 54 65 66 66 62 57 55 64 65 56 63 90 110 101 104 105 102 94 92 91 90 90 87 85 84 83 80 78 76 75 72 69 67 64 61 58 56 52 49 47 45 43 40
282 282 278 243 264 92 71 74 70 68 74 71 66 69 70 68 77 92 98 100 103 101 97 95 94 92 91 91 87 85 84 82 81 79 77 74 70 66 63 61 59 56 55 52 48 45 42 40 37
268 271 269 262 324 58 81 77 83 79 71 70 69 60 58 68 80 97 116 110 103 100 99 99 96 94 93 92 89 86 84 82 81 80 77 74 71 67 63 59 56 53 51 48 44 41 38 37 33
267 264 245 269 58 55 86 92 92 90 78 70 76 69 68 63 88 111 117 110 105 104 104 105 101 98 96 94 91 88 85 82 80 78 76 73 70 66 63 60 54 50 47 43 40 37 35 32 27
248 261 256 159 88 78 71 83 92 87 78 72 80 87 82 80 94 105 106 107 108 109 112 113 109 105 102 98 94 89 86 83 81 79 76 73 70 66 62 57 53 47 43 39 35 33 30 26 19
272 259 248 122 99 85 70 75 91 93 98 96 94 95 86 91 98 110 111 107 111 115 118 120 119 114 108 103 99 95 92 88 86 84 82 81 79 76 68 60 53 46 39 33 30 25 22 16 7
282 289 231 106 99 86 74 70 82 95 94 95 102 100 111 116 126 123 116 111 115 121 126 135 135 126 119 112 108 105 102 99 100 101 101 104 107 104 92 74 59 45 33 26 19 9 360 347 332
296 309 59 106 109 95 86 84 84 91 99 109 104 111 126 135 131 120 116 112 111 119 127 134 137 139 135 129 125 126 126 127 130 139 154 167 176 159 133 97 75 50 30 13 356 338 315 299 286
281 300 54 84 107 110 110 102 96 94 92 85 86 105 128 136 127 122 116 112 109 114 122 124 130 130 133 133 136 149 155 162 172 186 204 213 194 163 144 109 122 118 328 301 291 286 281 276 270
225 31 66 73 99 111 104 98 111 109 100 99 100 108 124 129 127 128 125 118 117 116 113 115 119 124 120 110 125 146 146 154 170 163 145 37 49 76 102 134 183 218 238 261 264 268 269 258 250
143 90 80 87 94 96 100 100 98 109 110 117 123 128 132 132 129 119 115 112 107 99 95 111 115 116 113 104 103 98 96 107 59 34 70 56 27 40 94 152 191 233 235 267 279 272 267 272 262
121 115 110 109 105 101 93 99 96 86 112 121 129 132 136 142 133 127 122 118 107 99 93 98 111 119 107 99 97 80 56 61 58 26 43 49 27 14 29 52 20 1 17 349 331 313 357 359 4
136 121 120 120 116 107 94 95 99 98 109 123 130 134 135 135 134 128 123 121 116 116 108 85 81 91 101 96 83 89 69 41 58 20 37 53 42 23 13 51 24 14 10 3 345 354 15 13 13
120 122 125 131 127 118 113 115 109 113 126 134 133 134 136 135 128 122 124 121 120 118 109 100 90 79 82 85 77 74 82 65 53 17 22 58 46 42 28 29 26 20 6 355 353 11 7 17 16
138 137 144 151 138 133 127 121 121 136 139 137 135 132 131 130 122 119 115 118 119 119 112 100 93 81 75 73 61 77 72 71 57 25 17 46 46 46 42 14 12 19 15 13 10 9 0 1 1
171 173 165 162 160 161 150 135 136 147 144 138 134 131 131 132 125 113 112 114 110 112 113 105 91 86 77 74 54 69 66 55 56 41 23 27 37 51 42 15 2 30 24 9 2 16 1 4 9
196 181 166 165 172 165 148 137 159 164 153 147 140 139 137 132 121 111 108 106 108 108 109 106 92 85 82 86 77 53 70 53 51 47 32 23 24 38 42 12 13 32 24 6 8 20 5 0 349
192 174 186 170 163 159 151 148 167 167 161 154 153 152 148 142 133 119 108 100 108 111 108 108 104 97 96 83 74 55 49 50 56 52 39 30 27 32 32 18 29 27 23 9 10 11 0 351 343
210 193 177 151 159 164 160 161 174 171 166 166 167 161 151 145 136 128 127 129 124 112 107 106 109 105 94 74 76 71 61 56 54 48 48 40 32 25 28 22 25 27 27 11 15 11 358 354 353
213 191 159 143 174 175 162 174 183 179 175 174 168 158 152 144 137 133 136 126 118 115 120 120 112 105 96 87 89 87 72 72 78 50 50 49 44 30 25 26 22 25 28 21 15 14 5 350 2
210 195 167 167 177 188 175 185 185 178 175 174 168 155 150 152 144 142 138 126 122 118 118 119 119 111 105 101 80 74 59 49 72 74 59 56 58 47 27 14 18 15 39 27 10 24 21 359 357
206 178 173 178 179 200 199 200 194 180 178 178 171 157 157 155 146 144 142 138 131 124 122 128 118 114 117 115 96 90 91 78 76 95 105 93 66 64 38 16 16 22 32 29 16 34 12 14 0
215 189 204 215 214 224 208 210 200 180 183 182 173 165 164 157 154 150 148 144 139 129 127 123 117 112 112 117 125 109 91 90 79 83 77 89 79 63 43 26 26 25 29 32 21 24 17 22 14
201 214 224 237 241 244 222 214 190 185 185 179 174 170 168 162 155 152 148 141 134 129 130 123 116 110 112 127 138 129 101 81 70 63 65 75 86 56 39 27 31 35 31 26 18 24 23 22 12
221 218 218 226 223 237 212 208 182 168 171 173 170 169 167 160 155 154 149 144 137 138 143 133 121 120 129 126 112 114 112 105 95 79 74 68 72 60 34 30 29 28 25 27 25 22 17 21 10
222 225 211 236 242 246 206 193 143 141 147 157 159 159 162 157 156 154 152 149 148 148 151 146 137 135 131 111 89 91 104 84 72 55 69 65 74 73 42 34 39 32 21 23 32 15 12 13 9
229 234 234 256 268 256 199 156 141 145 150 156 156 154 159 160 158 156 154 153 153 153 158 157 142 142 144 140 112 77 75 81 79 59 62 65 68 67 50 36 39 36 25 17 23 19 12 7 11
251 256 248 247 270 263 223 184 167 163 166 167 161 158 161 161 160 157 156 156 157 157 159 154 146 150 150 142 133 115 95 78 70 62 61 65 61 53 52 30 31 35 33 23 22 9 359 7 6
216 236 246 258 256 258 285 19 131 162 166 169 165 160 162 163 161 158 155 156 155 155 156 154 154 154 150 145 134 126 122 106 92 82 72 77 67 63 64 46 42 38 25 21 25 8 9 10 9
231 236 239 252 274 277 246 138 126 149 155 161 160 158 160 161 158 155 155 154 154 156 158 160 159 151 145 140 132 126 116 104 100 92 71 80 87 59 55 42 41 38 23 15 17 9 8 10 10
Height
1498 1498 1499 1500 1501 1502 1501 1496 1492 1493 1495 1497 1497 1498 1503 1507 1513 1524 1525 1524 1524 1525 1525 1526 1527 1528 1528 1529 1531 1531 1532 1533 1533 1534 1534 1535 1535 1535 1536 1536 1536 1536 1536 1536 1536 1536 1536 1536 1536
1498 1500 1501 1500 1502 1507 1505 1497 1497 1497 1498 1499 1500 1502 1506 1512 1517 1522 1524 1525 1526 1527 1527 1528 1529 1530 1531 1532 1532 1533 1534 1535 1535 1536 1536 1536 1537 1537 1537 1537 1537 1537 1537 1537 1537 1537 1537 1537 1537
1498 1500 1501 1498 1500 1505 1505 1498 1498 1499 1500 1501 1504 1507 1512 1517 1521 1523 1526 1527 1528 1528 1529 1530 1531 1532 1533 1534 1534 1535 1536 1537 1537 1537 1538 1538 1538 1538 1538 1538 1538 1538 1538 1538 1538 1538 1537 1537 1537
1501 1501 1499 1500 1503 1499 1497 1497 1498 1500 1502 1504 1506 1512 1518 1521 1523 1525 1527 1529 1530 1530 1531 1532 1533 1534 1535 1536 1536 1537 1538 1538 1539 1539 1539 1539 1539 1539 1539 1539 1539 1539 1539 1539 1538 1538 1538 1538 1538
1501 1500 1500 1502 1501 1498 1496 1497 1499 1502 1505 1508 1510 1517 1522 1525 1526 1527 1529 1531 1531 1532 1533 1534 1535 1536 1537 1538 1539 1539 1540 1540 1540 1540 1540 1540 1540 1540 1540 1540 1540 1540 1539 1539 1539 1539 1538 1538 1538
1502 1499 1504 1506 1503 1499 1499 1500 1501 1504 1508 1511 1515 1519 1526 1528 1529 1530 1531 1532 1534 1534 1535 1537 1538 1538 1539 1540 1541 1541 1542 1542 1542 1542 1542 1542 1542 1542 1542 1541 1541 1540 1540 1540 1539 1539 1539 1539 1539
1502 1500 1502 1503 1505 1504 1503 1503 1504 1507 1509 1512 1516 1521 1528 1530 1531 1532 1533 1535 1536 1537 1537 1538 1539 1541 1541 1542 1543 1543 1543 1543 1544 1544 1543 1543 1543 1543 1543 1543 1542 1542 1541 1540 1540 1540 1540 1540 1540
1501 1502 1502 1503 1507 1508 1505 1505 1507 1509 1512 1514 1516 1522 1528 1531 1533 1534 1536 1537 1538 1539 1540 1541 1542 1542 1543 1544 1545 1545 1545 1545 1545 1545 1545 1545 1545 1544 1544 1544 1543 1543 1542 1542 1541 1541 1541 1541 1541
1502 1505 1508 1506 1507 1508 1506 1507 1510 1512 1514 1516 1519 1522 1528 1531 1534 1536 1537 1539 1540 1541 1543 1544 1545 1545 1546 1546 1546 1547 1547 1547 1547 1547 1547 1547 1546 1547 1546 1546 1545 1544 1543 1543 1543 1542 1542 1542 1542
1502 1508 1507 1504 1504 1506 1507 1509 1511 1514 1517 1520 1523 1526 1530 1532 1534 1537 1539 1540 1541 1543 1545 1546 1547 1547 1548 1549 1548 1549 1549 1549 1549 1549 1549 1549 1549 1549 1548 1547 1546 1545 1545 1544 1544 1543 1543 1543 1543
1502 1506 1504 1504 1506 1507 1509 1511 1513 1514 1519 1522 1525 1528 1531 1534 1536 1538 1540 1542 1543 1545 1546 1547 1548 1549 1549 1550 1550 1551 1551 1551 1551 1551 1551 1550 1550 1550 1549 1548 1547 1546 1546 1545 1545 1544 1544 1544 1544
1503 1504 1505 1507 1508 1510 1511 1512 1515 1517 1520 1523 1526 1529 1532 1534 1536 1539 1541 1543 1544 1546 1547 1548 1549 1550 1551 1551 1551 1552 1552 1552 1552 1552 1552 1551 1551 1551 1550 1549 1548 1548 1547 1547 1546 1545 1545 1545 1545
1503 1505 1507 1509 1510 1512 1513 1515 1517 1520 1522 1525 1528 1530 1533 1535 1537 1540 1542 1544 1545 1547 1548 1549 1550 1551 1552 1552 1553 1553 1553 1553 1553 1553 1553 1552 1552 1551 1551 1550 1549 1549 1548 1547 1546 1546 1546 1545 1544
1505 1506 1508 1510 1511 1513 1515 1517 1519 1523 1524 1526 1529 1532 1534 1536 1538 1540 1543 1544 1546 1548 1550 1550 1551 1552 1553 1553 1554 1554 1554 1555 1554 1554 1554 1553 1553 1552 1551 1550 1550 1549 1548 1548 1547 1546 1546 1546 1545
1505 1507 1510 1511 1512 1514 1517 1520 1522 1524 1526 1528 1530 1533 1535 1537 1539 1541 1543 1545 1547 1549 1550 1551 1552 1553 1554 1554 1555 1555 1556 1556 1555 1555 1555 1554 1554 1553 1552 1551 1551 1550 1549 1548 1547 1546 1546 1546 1546
1505 1510 1515 1512 1512 1514 1519 1528 1524 1524 1526 1528 1531 1534 1536 1539 1540 1542 1544 1546 1548 1549 1551 1552 1553 1554 1555 1555 1556 1556 1556 1557 1556 1556 1555 1555 1554 1553 1552 1552 1551 1550 1549 1548 1548 1547 1546 1546 1545
1508 1515 1517 1514 1511 1512 1518 1526 1524 1524 1526 1529 1531 1534 1537 1539 1541 1543 1545 1547 1549 1550 1551 1553 1554 1555 1555 1556 1557 1557 1557 1557 1557 1557 1556 1555 1555 1554 1553 1553 1552 1551 1550 1549 1548 1547 1546 1546 1545
1514 1514 1515 1514 1511 1512 1518 1522 1523 1524 1526 1528 1531 1533 1536 1539 1541 1544 1546 1547 1549 1551 1552 1554 1555 1555 1556 1557 1557 1558 1558 1558 1558 1558 1557 1556 1555 1554 1554 1553 1552 1551 1550 1549 1548 1548 1547 1547 1546
1506 1511 1514 1512 1509 1513 1518 1522 1522 1523 1525 1527 1530 1532 1535 1539 1542 1544 1546 1548 1550 1552 1553 1554 1555 1556 1557 1557 1558 1559 1559 1559 1559 1558 1558 1557 1556 1555 1554 1553 1552 1552 1551 1550 1549 1548 1548 1547 1547
1506 1511 1513 1512 1509 1512 1517 1520 1519 1520 1523 1525 1528 1531 1534 1538 1541 1544 1547 1549 1551 1552 1554 1555 1556 1557 1557 1558 1559 1559 1560 1560 1560 1559 1558 1558 1557 1556 1555 1554 1553 1552 1552 1551 1550 1549 1549 1548 1548
1505 1509 1511 1514 1511 1511 1517 1523 1520 1519 1521 1524 1527 1530 1533 1537 1540 1544 1546 1549 1551 1553 1554 1555 1557 1557 1558 1559 1559 1560 1560 1561 1561 1560 1559 1559 1558 1556 1556 1555 1554 1554 1553 1552 1551 1551 1550 1549 1549
1510 1504 1506 1510 1516 1523 1519 1534 1521 1517 1520 1522 1525 1529 1533 1536 1539 1543 1546 1548 1551 1553 1554 1556 1557 1558 1558 1559 1560 1561 1561 1561 1562 1561 1560 1560 1559 1558 1557 1556 1555 1555 1554 1553 1553 1552 1551 1550 1550
1506 1503 1506 1508 1514 1520 1517 1526 1521 1514 1520 1521 1523 1528 1531 1535 1538 1542 1545 1548 1550 1552 1554 1556 1557 1558 1559 1560 1560 1561 1562 1562 1562 1562 1562 1561 1560 1559 1558 1557 1557 1556 1555 1554 1554 1553 1552 1551 1551
1504 1505 1507 1508 1514 1528 1515 1520 1521 1512 1513 1516 1520 1525 1529 1533 1537 1541 1544 1547 1550 1552 1554 1555 1557 1558 1559 1560 1561 1561 1562 1563 1563 1563 1562 1562 1561 1560 1559 1558 1558 1557 1556 1555 1555 1554 1553 1552 1552
1505 1514 1527 1532 1532 1526 1505 1512 1514 1503 1504 1509 1515 1521 1527 1531 1536 1540 1543 1546 1548 1551 1553 1555 1556 1558 1559 1560 1562 1562 1563 1563 1563 1563 1563 1562 1562 1561 1560 1559 1559 1558 1557 1556 1555 1554 1554 1553 1552
1505 1510 1528 1539 1534 1521 1506 1512 1506 1498 1502 1507 1513 1519 1524 1529 1534 1538 1541 1544 1547 1550 1552 1554 1556 1558 1559 1561 1562 1563 1563 1563 1564 1564 1563 1563 1562 1562 1561 1560 1559 1559 1558 1557 1556 1555 1554 1554 1553
1505 1508 1506 1516 1516 1520 1514 1506 1503 1499 1503 1507 1512 1517 1523 1527 1532 1536 1539 1542 1546 1549 1551 1554 1556 1558 1559 1561 1562 1563 1563 1564 1564 1564 1564 1563 1563 1562 1561 1561 1560 1559 1558 1558 1557 1556 1555 1554 1553
1500 1501 1506 1515 1526 1529 1517 1510 1510 1505 1504 1506 1510 1516 1521 1526 1530 1534 1538 1541 1545 1548 1551 1553 1555 1557 1559 1560 1562 1562 1563 1564 1564 1564 1564 1564 1563 1563 1562 1561 1561 1560 1559 1558 1557 1556 1555 1554 1553
1501 1502 1502 1505 1508 1521 1528 1519 1494 1498 1500 1504 1508 1514 1519 1524 1528 1532 1536 1540 1544 1547 1550 1552 1555 1557 1559 1560 1561 1562 1563 1563 1564 1564 1564 1564 1563 1563 1563 1562 1561 1560 1559 1558 1558 1557 1556 1554 1553
1493 1495 1499 1511 1510 1504 1514 1516 1490 1494 1498 1502 1507 1512 1517 1522 1527 1531 1535 1539 1542 1546 1549 1551 1554 1556 1558 1559 1560 1561 1562 1563 1563 1564 1564 1564 1564 1563 1563 1562 1561 1560 1560 1559 1558 1557 1556 1555 1553